Home   Weather   Tulln an der Donau   Past weeks

Flag for Austria Past Weather in Tulln an der Donau, Lower Austria, Austria — Yesterday and Last 2 Weeks

Now
32 °F

Clear.


Feels Like: 21 °F
Forecast: 17 / 24 °F
Wind: 17 mph from Southeast

Location: Tulln Airport

Current Time: Jan 22, 2017 at 7:12:29 pm

Latest Report: Jan 22, 2017 at 5:50 pm


Visibility: 7 mi

Pressure: 30.36 "Hg

Humidity: 60%

Dew Point: 19 °F

Location of Tulln an der DonauLocation

Past Weather in Tulln an der Donau — Graph

°F

Tulln an der Donau Temperature Yesterday

Maximum temperature yesterday: 27 °F (at 12:50 pm)
Minimum temperature yesterday: 12 °F (at 5:50 am)
Average temperature yesterday: 20 °F

High & Low Weather Summary for the Past Weeks

 TemperatureHumidityPressure
High43 °F (Jan 12, 1:20 pm)93% (Jan 8, 5:50 am)30.69 "Hg (Jan 8, 5:50 am)
Low7 °F (Jan 11, 8:20 am)51% (Jan 22, 3:50 pm)29.42 "Hg (Jan 13, 4:50 am)
Average27 °F77%30.22 "Hg
* Reported Jan 7 5:50 pm — Jan 22 5:50 pm, Tulln an der Donau, Weather by CustomWeather, © 2017

Note: Actual official high and low records may vary slightly from our data, if they occured in-between our weather recording intervals... More about our weather records

Advertising

Tulln an der Donau Weather History for the Previous 24 Hours

Scroll right to see more
 ConditionsComfort  
Time TempWeatherWind HumidityBarometerVisibility
5:50 pm
Sun, Jan 22
32 °FClear.17 mph60%30.36 "Hg7 mi
4:50 pm32 °FClear.23 mph60%30.36 "Hg12 mi
3:50 pm34 °FSunny.21 mph51%30.36 "Hg11 mi
2:50 pm36 °FSunny.16 mph56%30.39 "Hg9 mi
1:50 pm36 °FSunny.15 mph56%30.39 "Hg7 mi
12:50 pm34 °FSunny.14 mph60%30.39 "Hg7 mi
11:50 am32 °FSunny.14 mph60%30.42 "Hg7 mi
10:50 am32 °FSunny.12 mph55%30.45 "Hg6 mi
9:50 am30 °FSunny.13 mph55%30.45 "Hg6 mi
8:50 am25 °FPassing clouds.5 mph80%30.45 "Hg5 mi
7:50 am21 °FPassing clouds.3 mph80%30.45 "Hg4 mi
6:50 am21 °FIce fog.7 mph86%30.45 "Hg3 mi
5:50 am21 °FIce fog.8 mph86%30.45 "Hg3 mi
4:50 am21 °FIce fog.3 mph86%30.45 "Hg3 mi
9:50 pm
Sat, Jan 21
25 °FClear.6 mph80%30.48 "Hg4 mi
8:50 pm25 °FClear.7 mph80%30.48 "Hg4 mi
7:50 pm25 °FClear.7 mph80%30.48 "Hg4 mi
Weather by CustomWeather, © 2017

See weather overviewHow to use our weather pages